Cody, WY

8:28 AM MDT on June 24, 2017 (GMT -0600)
Yellowstone Regional

Weather History for KCOD - March, 2014

Change the Weather History Date:

Sunday, March 16, 2014

  Actual Average Record
Temperature  
Mean Temperature 50 °F -  
Max Temperature 57 °F 49 °F 70 °F (1926)
Min Temperature 42 °F 24 °F -7 °F (1943)
Degree Days  
Heating Degree Days 16    
Moisture  
Dew Point 17 °F    
Average Humidity 28    
Maximum Humidity 36    
Minimum Humidity 18    
Precipitation  
Precipitation 0.00 in - - ()
Sea Level Pressure  
Sea Level Pressure 30.05 in    
Wind  
Wind Speed 15 mph (West)    
Max Wind Speed 24 mph    
Max Gust Speed 37 mph    
Visibility 10 miles    
Events      
Averages and records for this station are not official NWS values.
T = Trace of Precipitation, MM = Missing Value Source: NWS Daily Summary

Daily Weather History Graph

Daily Weather History Graph

Search for Another Location

Airport or City:

Trip Planner

Search our weather history database for the weather conditions in past years. The results will help you decide how hot, cold, wet, or windy it might be!

Date:

Astronomy

Mar. 16, 2014 Rise Set
Actual Time 7:26 AM MDT 7:23 PM MDT
Civil Twilight 6:57 AM MDT 7:52 PM MDT
Nautical Twilight 6:23 AM MDT 8:26 PM MDT
Astronomical Twilight 5:49 AM MDT 9:01 PM MDT
Moon 7:46 PM MDT (3/16) 7:10 AM MDT (3/16)
Length of Visible Light 12h 55m
Length of Day
11h 57m
Full, 100% of the Moon is Illuminated
Mar 16
Full
Mar 23
Last Quarter
Mar 30
New
Apr 7
First Quarter
Apr 15
Full

Hourly Weather History & Observations

Time (MDT) Temp. Windchill Dew Point Humidity Pressure Visibility Wind Dir Wind Speed Gust Speed Precip Events Conditions
12:15 AM 42.8 °F 36.2 °F 14.0 °F 31% 30.24 in 10.0 mi West 12.7 mph 21.9 mph N/A   Partly Cloudy
12:35 AM 42.8 °F 33.3 °F 17.6 °F 36% 30.23 in 10.0 mi WSW 24.2 mph 31.1 mph N/A   Scattered Clouds
12:55 AM 42.8 °F 35.4 °F 17.6 °F 36% 30.22 in 10.0 mi West 15.0 mph 31.1 mph N/A   Scattered Clouds
1:15 AM 42.8 °F 35.4 °F 17.6 °F 36% 30.21 in 10.0 mi West 15.0 mph 26.5 mph N/A   Clear
1:35 AM 44.6 °F 37.8 °F 15.8 °F 31% 30.22 in 10.0 mi West 15.0 mph 31.1 mph N/A   Clear
1:55 AM 44.6 °F 36.6 °F 17.6 °F 34% 30.21 in 10.0 mi West 19.6 mph 28.8 mph N/A   Clear
2:15 AM 44.6 °F 36.6 °F 17.6 °F 34% 30.20 in 10.0 mi West 19.6 mph 24.2 mph N/A   Clear
2:35 AM 44.6 °F 37.2 °F 17.6 °F 34% 30.18 in 10.0 mi West 17.3 mph 28.8 mph N/A   Clear
2:55 AM 44.6 °F 35.9 °F 17.6 °F 34% 30.18 in 10.0 mi WSW 23.0 mph 34.5 mph N/A   Clear
3:15 AM 44.6 °F 35.7 °F 17.6 °F 34% 30.17 in 10.0 mi WSW 24.2 mph 33.4 mph N/A   Clear
3:35 AM 44.6 °F 37.2 °F 17.6 °F 34% 30.17 in 10.0 mi West 17.3 mph 31.1 mph N/A   Clear
3:55 AM 44.6 °F 35.9 °F 17.6 °F 34% 30.16 in 10.0 mi WSW 23.0 mph 35.7 mph N/A   Clear
4:15 AM 44.6 °F 36.1 °F 17.6 °F 34% 30.17 in 10.0 mi WSW 21.9 mph 35.7 mph N/A   Clear
4:35 AM 44.6 °F 37.4 °F 17.6 °F 34% 30.17 in 10.0 mi WSW 16.1 mph 32.2 mph N/A   Clear
4:55 AM 44.6 °F 36.6 °F 15.8 °F 31% 30.16 in 10.0 mi WSW 19.6 mph 35.7 mph N/A   Clear
5:15 AM 44.6 °F 36.6 °F 17.6 °F 34% 30.15 in 10.0 mi WSW 19.6 mph 32.2 mph N/A   Clear
5:35 AM 44.6 °F 36.9 °F 15.8 °F 31% 30.15 in 10.0 mi West 18.4 mph 33.4 mph N/A   Clear
5:55 AM 44.6 °F 36.1 °F 15.8 °F 31% 30.14 in 10.0 mi West 21.9 mph 31.1 mph N/A   Clear
6:15 AM 44.6 °F 37.2 °F 15.8 °F 31% 30.15 in 10.0 mi WSW 17.3 mph 36.8 mph N/A   Clear
6:35 AM 44.6 °F 36.6 °F 15.8 °F 31% 30.16 in 10.0 mi West 19.6 mph 31.1 mph N/A   Clear
6:55 AM 44.6 °F 36.6 °F 15.8 °F 31% 30.14 in 10.0 mi West 19.6 mph 34.5 mph N/A   Clear
7:15 AM 46.4 °F 40.4 °F 15.8 °F 29% 30.15 in 10.0 mi West 13.8 mph 25.3 mph N/A   Clear
7:35 AM 46.4 °F 40.1 °F 15.8 °F 29% 30.16 in 10.0 mi West 15.0 mph 29.9 mph N/A   Clear
7:55 AM 46.4 °F 40.4 °F 15.8 °F 29% 30.15 in 10.0 mi WSW 13.8 mph 24.2 mph N/A   Clear
8:15 AM 46.4 °F 39.0 °F 15.8 °F 29% 30.14 in 10.0 mi WSW 19.6 mph 32.2 mph N/A   Clear
8:35 AM 46.4 °F 39.8 °F 15.8 °F 29% 30.14 in 10.0 mi WSW 16.1 mph 29.9 mph N/A   Clear
8:55 AM 46.4 °F 39.5 °F 15.8 °F 29% 30.15 in 10.0 mi WSW 17.3 mph 31.1 mph N/A   Clear
9:15 AM 46.4 °F 41.1 °F 15.8 °F 29% 30.14 in 10.0 mi West 11.5 mph 24.2 mph N/A   Clear
9:35 AM 46.4 °F 40.4 °F 15.8 °F 29% 30.13 in 10.0 mi WSW 13.8 mph 24.2 mph N/A   Clear
9:55 AM 48.2 °F - 14.0 °F 25% 30.13 in 10.0 mi West 16.1 mph 25.3 mph N/A   Clear
10:15 AM 48.2 °F - 15.8 °F 27% 30.12 in 10.0 mi NNW 9.2 mph - N/A   Clear
10:35 AM 46.4 °F 41.5 °F 15.8 °F 29% 30.13 in 10.0 mi NNE 10.4 mph - N/A   Clear
10:55 AM 46.4 °F - 17.6 °F 32% 30.13 in 10.0 mi Calm Calm - N/A   Clear
11:15 AM 46.4 °F 41.5 °F 15.8 °F 29% 30.12 in 10.0 mi ENE 10.4 mph - N/A   Clear
11:35 AM 48.2 °F - 17.6 °F 30% 30.12 in 10.0 mi NNE 10.4 mph - N/A   Clear
11:55 AM 46.4 °F 45.2 °F 17.6 °F 32% 30.12 in 10.0 mi NW 3.5 mph - N/A   Clear
12:15 PM 46.4 °F 40.7 °F 17.6 °F 32% 30.11 in 10.0 mi ENE 12.7 mph - N/A   Clear
12:35 PM 48.2 °F - 17.6 °F 30% 30.09 in 10.0 mi NNE 6.9 mph - N/A   Clear
12:55 PM 50.0 °F - 17.6 °F 28% 30.08 in 10.0 mi North 6.9 mph - N/A   Clear
1:15 PM 51.8 °F - 17.6 °F 26% 30.06 in 10.0 mi WNW 8.1 mph - N/A   Clear
1:35 PM 53.6 °F - 17.6 °F 24% 30.06 in 10.0 mi West 10.4 mph 25.3 mph N/A   Clear
1:55 PM 55.4 °F - 15.8 °F 21% 30.03 in 10.0 mi WSW 18.4 mph 31.1 mph N/A   Clear
2:15 PM 55.4 °F - 15.8 °F 21% 30.03 in 10.0 mi WSW 19.6 mph 31.1 mph N/A   Clear
2:35 PM 55.4 °F - 15.8 °F 21% 30.03 in 10.0 mi WSW 11.5 mph 28.8 mph N/A   Clear
2:55 PM 55.4 °F - 15.8 °F 21% 30.02 in 10.0 mi West 4.6 mph - N/A   Clear
3:15 PM 48.2 °F - 21.2 °F 34% 30.02 in 10.0 mi NNE 4.6 mph - N/A   Clear
3:35 PM 51.8 °F - 21.2 °F 30% 30.01 in 10.0 mi ENE 6.9 mph - N/A   Clear
3:55 PM 55.4 °F - 19.4 °F 25% 30.01 in 10.0 mi Calm Calm - N/A   Clear
4:15 PM 55.4 °F - 21.2 °F 26% 29.99 in 10.0 mi NNE 11.5 mph 17.3 mph N/A   Clear
4:35 PM 57.2 °F - 19.4 °F 23% 29.99 in 10.0 mi NW 6.9 mph - N/A   Clear
4:55 PM 57.2 °F - 19.4 °F 23% 29.98 in 10.0 mi NW 6.9 mph 19.6 mph N/A   Clear
5:15 PM 57.2 °F - 15.8 °F 20% 29.97 in 10.0 mi WSW 16.1 mph 27.6 mph N/A   Clear
5:35 PM 57.2 °F - 14.0 °F 18% 29.97 in 10.0 mi West 15.0 mph 32.2 mph N/A   Clear
5:55 PM 57.2 °F - 14.0 °F 18% 29.95 in 10.0 mi West 17.3 mph 29.9 mph N/A   Clear
6:15 PM 57.2 °F - 14.0 °F 18% 29.95 in 10.0 mi WSW 19.6 mph 27.6 mph N/A   Clear
6:35 PM 55.4 °F - 14.0 °F 20% 29.94 in 10.0 mi WSW 21.9 mph 31.1 mph N/A   Clear
6:55 PM 55.4 °F - 15.8 °F 21% 29.93 in 10.0 mi WSW 19.6 mph 24.2 mph N/A   Clear
7:15 PM 53.6 °F - 15.8 °F 22% 29.92 in 10.0 mi WSW 19.6 mph 25.3 mph N/A   Clear
7:35 PM 53.6 °F - 17.6 °F 24% 29.92 in 10.0 mi West 16.1 mph 29.9 mph N/A   Clear
7:55 PM 53.6 °F - 17.6 °F 24% 29.90 in 10.0 mi WSW 13.8 mph 29.9 mph N/A   Clear
8:15 PM 53.6 °F - 19.4 °F 26% 29.89 in 10.0 mi WSW 17.3 mph 26.5 mph N/A   Clear
8:35 PM 53.6 °F - 19.4 °F 26% 29.89 in 10.0 mi WSW 15.0 mph 26.5 mph N/A   Clear
8:55 PM 53.6 °F - 19.4 °F 26% 29.88 in 10.0 mi WSW 15.0 mph 20.7 mph N/A   Clear
9:15 PM 51.8 °F - 19.4 °F 28% 29.87 in 10.0 mi WSW 15.0 mph 23.0 mph N/A   Clear
9:35 PM 53.6 °F - 19.4 °F 26% 29.86 in 10.0 mi SW 16.1 mph 24.2 mph N/A   Clear
9:55 PM 53.6 °F - 19.4 °F 26% 29.85 in 10.0 mi SW 11.5 mph 25.3 mph N/A   Clear
10:15 PM 53.6 °F - 17.6 °F 24% 29.84 in 10.0 mi WSW 15.0 mph 21.9 mph N/A   Clear
10:35 PM 48.2 °F - 19.4 °F 32% 29.82 in 10.0 mi SSW 11.5 mph - N/A   Clear
10:55 PM 48.2 °F - 19.4 °F 32% 29.82 in 10.0 mi South 11.5 mph 17.3 mph N/A   Clear
11:15 PM 48.2 °F - 19.4 °F 32% 29.81 in 10.0 mi South 11.5 mph 18.4 mph N/A   Clear
11:35 PM 48.2 °F - 17.6 °F 30% 29.80 in 10.0 mi SSE 11.5 mph - N/A   Clear
11:55 PM 46.4 °F 41.5 °F 17.6 °F 32% 29.79 in 10.0 mi SSE 10.4 mph - N/A   Clear